[[{"header":{"parameterUnit":"m.s-1","parameterCategory":1,"la1":30.2991,"la2":30.254,"lo1":-89.0895,"lo2":-89.0444,"dy":0.0017,"dx":0.0017,"nx":28,"ny":28,"refTime":"2025-08-24T09:00:00:Z","depth":0,"parameterNumber":2,"parameterNumberName":"U-component_of_WINDS"},"data":[0,0,0,0,0,0,0,0,0,0,0,0,0,0,0,0,0,0,0,0,0,0,0,0,0,0,0,0,0,0,0,0,0,0,0,0,0,0,0,0,0,0,0,0,0,0,0,0,0,0,0,0,0,0,0,0,0,0,1.7138,1.7139,0,1.7165,1.7166,1.7166,1.7109,1.7107,1.7105,1.7104,1.7133,1.7136,1.7138,0,0,0,0,0,0,0,0,0,0,0,0,0,1.7041,1.7043,1.7138,1.7139,1.7139,1.7165,1.7166,1.7166,1.7109,1.7107,1.7105,1.7103,1.7132,1.7135,1.7138,0,0,0,0,0,0,0,0,0,0,0,0,0,1.7077,1.7043,1.7138,1.7114,1.7112,1.7165,1.7166,1.7166,1.711,1.7107,1.7104,1.7102,1.7131,1.7135,1.7139,1.7218,0,0,1.715,1.7152,0,0,0,0,0,0,0,0,1.7075,1.7081,1.7117,1.7116,1.7114,1.7131,1.7142,1.7183,1.7111,1.7111,1.7104,1.71,1.7135,1.7138,1.7149,1.7219,1.722,1.7151,1.7153,1.7155,1.7156,0,0,0,0,0,0,0,1.7073,1.7079,1.7149,1.7118,1.7116,1.7103,1.7105,1.715,1.7138,1.7111,1.7106,1.711,1.7133,1.7146,1.715,1.7221,1.7151,1.7154,1.7156,1.7158,1.7359,1.7362,0,0,0,0,0,0,1.7073,1.7077,1.7148,1.715,1.7087,1.7107,1.7109,1.7128,1.7137,1.7136,1.7113,1.7108,1.7141,1.7145,1.7151,1.7245,1.7155,1.7158,1.716,1.7356,1.736,1.7363,0,0,0,0,0,0,1.7071,1.708,1.7147,1.7113,1.712,1.7111,1.7133,1.713,1.7143,1.7139,1.7137,1.7127,1.7139,1.7145,1.7202,1.7245,1.716,1.7163,1.7352,1.7357,1.7361,1.7434,0,0,0,0,0,0,1.7068,1.7079,1.7108,1.7114,1.7122,1.7197,1.7136,1.7133,1.7149,1.7143,1.7152,1.7151,1.7137,1.7196,1.7206,1.7249,1.7166,1.7348,1.7354,1.736,1.7427,1.744,1.7451,0,0,0,0,0,1.7065,1.7128,1.711,1.7119,1.7158,1.72,1.7205,1.7187,1.7153,1.7183,1.7181,1.7151,1.7239,1.7203,1.7212,1.7258,1.7345,1.7353,1.7359,1.7422,1.7438,1.7451,0,0,0,0,0,0,1.7128,1.7128,1.7108,1.7174,1.7187,1.719,1.7227,1.7203,1.7227,1.722,1.7197,1.72,1.7262,1.7265,1.7225,1.7336,1.7287,1.7296,1.7331,1.7346,1.7357,1.7356,1.7169,0,0,0,0,0,1.7149,1.7182,1.718,1.7239,1.7246,1.7236,1.7253,1.7238,1.7251,1.7257,1.7259,1.7273,1.7304,1.7325,1.7353,1.7428,1.743,1.7464,1.7475,1.7485,1.7494,1.7536,1.7551,1.7386,1.7386,1.7386,0,0,1.7194,1.7198,1.722,1.7252,1.726,1.7296,1.7241,1.728,1.7307,1.7263,1.7317,1.7319,1.7334,1.74,1.7429,1.7405,1.754,1.7494,1.7502,1.7505,1.7544,1.756,1.7574,1.739,1.739,1.7389,0,0,1.7294,1.7299,1.7349,1.7359,1.7373,1.7366,1.7378,1.7385,1.7384,1.7438,1.7406,1.7438,1.7491,1.7504,1.7517,1.7624,1.7599,1.7634,1.7696,1.7738,1.7751,1.7762,1.7802,1.7816,1.7642,1.7643,1.7643,0,1.7347,1.7399,1.7378,1.7421,1.7437,1.7398,1.745,1.746,1.7483,1.7495,1.7467,1.7535,1.7542,1.7612,1.7638,1.7649,1.7664,1.7633,1.775,1.7762,1.7772,1.781,1.7825,1.7647,1.7646,1.7646,1.7646,0,1.7466,1.7503,1.7542,1.7565,1.7585,1.7631,1.7619,1.7642,1.7626,1.7622,1.7678,1.7686,1.7716,1.7731,1.7715,1.78,1.7784,1.7754,1.7704,1.7792,1.7828,1.7842,1.7653,1.7652,1.765,1.7649,0,0,1.7605,1.7617,1.7632,1.7643,1.7656,1.7684,1.773,1.7759,1.778,1.7798,1.7837,1.7884,1.7856,1.7872,1.7857,1.7893,1.798,1.7858,1.7859,1.7882,1.8076,1.8099,1.8116,1.7963,1.7966,1.7968,1.8075,0,1.7706,1.7784,1.7767,1.7845,1.788,1.7845,1.7885,1.7898,1.7896,1.7927,1.7925,1.7959,1.7919,1.7928,1.7962,1.7962,1.8019,1.7954,1.8001,1.8003,1.7999,1.8134,1.8159,1.826,1.8088,1.8091,1.8092,0,1.7833,1.7855,1.7936,1.7946,1.796,1.7996,1.8023,1.8051,1.8066,1.8063,1.8081,1.806,1.8108,1.8057,1.8124,1.808,1.8098,1.8102,1.8105,1.8109,1.8054,1.8144,1.8291,1.8307,1.8113,1.8112,1.811,0,1.7928,1.7979,1.8034,1.8045,1.8056,1.8083,1.8089,1.8102,1.8121,1.8144,1.8157,1.8186,1.8202,1.8226,1.8214,1.8178,1.8283,1.8231,1.8283,1.8284,1.8307,1.8306,1.8461,1.8317,1.8317,1.8317,1.8316,0,1.8043,1.8094,1.8078,1.8112,1.817,1.815,1.8208,1.821,1.8222,1.8257,1.8228,1.8262,1.8245,1.8278,1.8269,1.8327,1.8334,1.8333,1.8331,1.8337,1.8337,1.8349,1.8342,1.8321,1.832,1.8319,1.8318,0,1.8159,1.815,1.8209,1.8215,1.8218,1.8261,1.8267,1.83,1.8296,1.8342,1.8351,1.8346,1.8384,1.8374,1.8416,1.841,1.8483,1.8471,1.8478,1.8475,1.8528,1.8524,1.8697,1.872,1.856,1.8562,1.8563,0,1.8233,1.8272,1.8284,1.8305,1.8313,1.8348,1.8368,1.8351,1.8373,1.8394,1.8425,1.8461,1.8488,1.855,1.8551,1.8583,1.8572,1.8631,1.8577,1.8583,1.8575,1.8574,1.8578,1.8642,1.8644,1.8645,1.8646,0,1.8367,1.8361,1.8389,1.8418,1.8442,1.8464,1.8483,1.8502,1.8487,1.8514,1.8552,1.8573,1.8616,1.8652,1.8682,1.869,1.8667,1.8663,1.8677,1.8684,1.8688,1.8688,1.8509,1.866,1.8658,1.8657,1.8657,1.8656,1.8465,1.8499,1.8513,1.8547,1.8559,1.8578,1.861,1.8611,1.8642,1.8675,1.8664,1.8708,1.8724,1.8762,1.8773,1.8809,1.8787,1.8807,1.8812,1.8817,1.8825,1.8681,1.8814,1.8814,1.8813,1.8813,1.8813,0,1.8598,1.8606,1.8637,1.8665,1.8692,1.8667,1.8688,1.8713,1.8752,1.8768,1.8796,1.8841,1.8876,1.8881,1.8914,1.8942,1.8933,1.8952,1.895,1.8953,1.8841,1.8827,1.8959,1.8959,1.8959,1.8959,1.8959,1.8959,1.8671,1.8727,1.8723,1.8786,1.8793,1.8836,1.885,1.8868,1.8881,1.8933,1.8962,1.8964,1.8977,1.9011,1.9043,1.9044,1.9058,1.9082,1.9079,1.8975,1.896,1.8946,1.8933,1.9085,1.9085,1.9187,1.9188,1.9189]},{"header":{"parameterUnit":"m.s-1","parameterCategory":1,"la1":30.2991,"la2":30.254,"lo1":-89.0895,"lo2":-89.0444,"dy":0.0017,"dx":0.0017,"nx":28,"ny":28,"refTime":"2025-08-24T09:00:00:Z","depth":0,"parameterNumber":3,"parameterNumberName":"V-component_of_WINDS"},"data":[0,0,0,0,0,0,0,0,0,0,0,0,0,0,0,0,0,0,0,0,0,0,0,0,0,0,0,0,0,0,0,0,0,0,0,0,0,0,0,0,0,0,0,0,0,0,0,0,0,0,0,0,0,0,0,0,0,0,-1.9233,-1.9233,0,-1.9208,-1.9208,-1.9207,-1.9171,-1.9171,-1.917,-1.917,-1.9144,-1.9143,-1.9143,0,0,0,0,0,0,0,0,0,0,0,0,0,-1.9249,-1.9249,-1.9233,-1.9233,-1.9232,-1.9208,-1.9208,-1.9207,-1.9172,-1.9171,-1.917,-1.9169,-1.9144,-1.9143,-1.9143,0,0,0,0,0,0,0,0,0,0,0,0,0,-1.9235,-1.9248,-1.9233,-1.9212,-1.9209,-1.9208,-1.9208,-1.9207,-1.9172,-1.9171,-1.917,-1.9169,-1.9144,-1.9143,-1.9143,-1.9161,0,0,-1.9143,-1.9143,0,0,0,0,0,0,0,0,-1.9235,-1.9234,-1.9215,-1.9213,-1.9211,-1.9192,-1.9204,-1.9192,-1.9172,-1.9186,-1.917,-1.9169,-1.916,-1.9159,-1.9156,-1.916,-1.9158,-1.9143,-1.9143,-1.9143,-1.9142,0,0,0,0,0,0,0,-1.9236,-1.9235,-1.9223,-1.9215,-1.9212,-1.9203,-1.92,-1.9201,-1.9179,-1.9185,-1.9182,-1.918,-1.9159,-1.9156,-1.9155,-1.9158,-1.9143,-1.9143,-1.9142,-1.9142,-1.9173,-1.9174,0,0,0,0,0,0,-1.9241,-1.9236,-1.9224,-1.9222,-1.9221,-1.9203,-1.92,-1.9199,-1.9179,-1.9175,-1.918,-1.9178,-1.9157,-1.9155,-1.9154,-1.9172,-1.9143,-1.9142,-1.9142,-1.9172,-1.9173,-1.9174,0,0,0,0,0,0,-1.9241,-1.924,-1.9225,-1.9228,-1.9226,-1.9204,-1.9203,-1.9199,-1.9196,-1.9175,-1.9171,-1.9182,-1.9156,-1.9154,-1.9159,-1.9171,-1.9142,-1.9142,-1.9171,-1.9172,-1.9174,-1.9209,0,0,0,0,0,0,-1.9242,-1.924,-1.9247,-1.9229,-1.9226,-1.9231,-1.9204,-1.9199,-1.9196,-1.9193,-1.9176,-1.9172,-1.9155,-1.9159,-1.9159,-1.917,-1.9142,-1.917,-1.9171,-1.9173,-1.9206,-1.9211,-1.9215,0,0,0,0,0,-1.9242,-1.9258,-1.9248,-1.9246,-1.9234,-1.9231,-1.923,-1.921,-1.9197,-1.9203,-1.919,-1.9172,-1.917,-1.916,-1.9159,-1.917,-1.9169,-1.9171,-1.9173,-1.9204,-1.921,-1.9215,0,0,0,0,0,0,-1.9278,-1.9255,-1.9243,-1.9254,-1.9245,-1.9225,-1.9233,-1.9217,-1.9212,-1.9209,-1.9185,-1.9182,-1.9189,-1.918,-1.917,-1.9185,-1.9167,-1.9168,-1.9191,-1.9196,-1.92,-1.9202,-1.9142,0,0,0,0,0,-1.9288,-1.9288,-1.9268,-1.9279,-1.9275,-1.9255,-1.9253,-1.9239,-1.9229,-1.9225,-1.9211,-1.9202,-1.9199,-1.9197,-1.9193,-1.9205,-1.92,-1.9212,-1.9217,-1.922,-1.9222,-1.9226,-1.9231,-1.9181,-1.9181,-1.9181,0,0,-1.9306,-1.9294,-1.9295,-1.9286,-1.9277,-1.9277,-1.9252,-1.9253,-1.9253,-1.9225,-1.9228,-1.9218,-1.9206,-1.9214,-1.9217,-1.9207,-1.9234,-1.9223,-1.9226,-1.9225,-1.9228,-1.9233,-1.9237,-1.9182,-1.9182,-1.9182,0,0,-1.934,-1.9332,-1.9339,-1.9331,-1.9318,-1.9305,-1.9307,-1.9289,-1.9281,-1.9284,-1.9263,-1.9262,-1.9257,-1.9249,-1.9244,-1.9274,-1.9257,-1.9274,-1.9296,-1.93,-1.9304,-1.9308,-1.9317,-1.9321,-1.9276,-1.9276,-1.9276,0,-1.9365,-1.9365,-1.9345,-1.9348,-1.9343,-1.9318,-1.9325,-1.9318,-1.9305,-1.9302,-1.9291,-1.9284,-1.9274,-1.9279,-1.9286,-1.9284,-1.9284,-1.9275,-1.9306,-1.9309,-1.9311,-1.932,-1.9324,-1.9278,-1.9278,-1.9277,-1.9277,0,-1.9395,-1.9396,-1.9403,-1.9391,-1.9388,-1.9393,-1.9372,-1.9372,-1.9358,-1.9345,-1.9348,-1.9335,-1.9327,-1.9328,-1.9314,-1.933,-1.9324,-1.931,-1.929,-1.9318,-1.9326,-1.9329,-1.9281,-1.928,-1.9279,-1.9279,0,0,-1.9451,-1.9427,-1.943,-1.9424,-1.9407,-1.9407,-1.941,-1.9403,-1.9402,-1.9394,-1.9395,-1.9391,-1.9377,-1.9372,-1.9357,-1.9361,-1.9384,-1.9346,-1.9346,-1.9352,-1.9399,-1.9409,-1.9413,-1.9373,-1.9374,-1.9375,-1.94,0,-1.9481,-1.9485,-1.9467,-1.9476,-1.9475,-1.9451,-1.9454,-1.9444,-1.9432,-1.9429,-1.9416,-1.9413,-1.9396,-1.9392,-1.9395,-1.9381,-1.9393,-1.9379,-1.9373,-1.9373,-1.9376,-1.9418,-1.9428,-1.9453,-1.9403,-1.9403,-1.9404,0,-1.9516,-1.9509,-1.9518,-1.9501,-1.95,-1.9503,-1.9494,-1.9492,-1.948,-1.9471,-1.9464,-1.9447,-1.9448,-1.9431,-1.9431,-1.9422,-1.9418,-1.9411,-1.9411,-1.9409,-1.9389,-1.9415,-1.946,-1.9463,-1.9408,-1.9408,-1.9408,0,-1.9554,-1.9547,-1.9551,-1.9547,-1.9527,-1.9529,-1.9521,-1.9508,-1.9504,-1.9496,-1.9493,-1.9486,-1.9481,-1.9475,-1.9456,-1.9445,-1.9458,-1.9439,-1.945,-1.945,-1.9453,-1.9453,-1.9497,-1.9453,-1.9453,-1.9453,-1.9453,0,-1.9589,-1.9595,-1.9568,-1.9571,-1.9576,-1.9555,-1.9561,-1.955,-1.9539,-1.9538,-1.9517,-1.9516,-1.9492,-1.9489,-1.9474,-1.9475,-1.9474,-1.9466,-1.9462,-1.9467,-1.9468,-1.9464,-1.9461,-1.9454,-1.9454,-1.9454,-1.9453,0,-1.9632,-1.9614,-1.9617,-1.9598,-1.9593,-1.9598,-1.9581,-1.9582,-1.9569,-1.9568,-1.9566,-1.9545,-1.954,-1.9521,-1.9511,-1.9501,-1.9507,-1.95,-1.9511,-1.9508,-1.9519,-1.9518,-1.9561,-1.9565,-1.952,-1.9521,-1.9521,0,-1.9654,-1.9658,-1.9639,-1.9637,-1.963,-1.9627,-1.9623,-1.9603,-1.9599,-1.9585,-1.9587,-1.958,-1.9574,-1.9566,-1.955,-1.9541,-1.9533,-1.9549,-1.9532,-1.9536,-1.9531,-1.9531,-1.953,-1.9552,-1.9553,-1.9553,-1.9554,0,-1.9696,-1.9687,-1.9682,-1.9674,-1.967,-1.9663,-1.9654,-1.9653,-1.963,-1.9627,-1.9621,-1.9616,-1.9606,-1.9599,-1.9588,-1.9578,-1.9561,-1.9559,-1.9561,-1.9566,-1.9572,-1.9567,-1.952,-1.9558,-1.9558,-1.9557,-1.9557,-1.9557,-1.9728,-1.973,-1.9717,-1.9712,-1.9703,-1.9696,-1.9695,-1.9682,-1.9677,-1.9667,-1.9655,-1.965,-1.9637,-1.962,-1.9612,-1.9608,-1.9599,-1.9602,-1.9602,-1.9603,-1.9605,-1.9573,-1.9606,-1.9606,-1.9605,-1.9605,-1.9605,0,-1.9767,-1.9758,-1.9754,-1.9742,-1.9738,-1.9723,-1.9713,-1.971,-1.9706,-1.9695,-1.9689,-1.9682,-1.9675,-1.9657,-1.9648,-1.9648,-1.964,-1.9646,-1.9645,-1.9643,-1.9614,-1.9613,-1.9652,-1.9652,-1.9652,-1.9652,-1.9652,-1.9652,-1.9787,-1.979,-1.9779,-1.9776,-1.9766,-1.9762,-1.9757,-1.9749,-1.974,-1.9733,-1.9727,-1.9716,-1.9702,-1.9691,-1.9683,-1.9678,-1.9675,-1.9684,-1.9676,-1.9649,-1.9645,-1.9641,-1.9639,-1.9684,-1.9684,-1.9705,-1.9705,-1.9705]}]]